Boston, MA

4:43 PM EDT on April 26, 2017 (GMT -0400)
Logan International

Weather History for KBOS - October, 2010

Change the Weather History Date:

Friday, October 22, 2010

  Actual Average Record
Temperature  
Mean Temperature 46 °F 52 °F  
Max Temperature 51 °F 59 °F 83 °F (1979)
Min Temperature 41 °F 45 °F 28 °F (1940)
Degree Days  
Heating Degree Days 19 13  
Month to date heating degree days 212 219  
Since 1 July heating degree days 246 316  
Cooling Degree Days 0 0  
Month to date cooling degree days 6 6  
Year to date cooling degree days 1075 746  
Moisture  
Dew Point 25 °F    
Average Humidity 52    
Maximum Humidity 73    
Minimum Humidity 31    
Precipitation  
Precipitation 0.00 in 0.13 in 1.53 in (1898)
Month to date precipitation 3.75 2.80  
Year to date precipitation 42.94 34.86  
Snow  
Snow 0.00 in 0.00 in T in (1969)
Month to date snowfall 0.0 0.0  
Since 1 July snowfall 0.0 0.0  
Since 1 September snowfall 0.0 0.0  
Snow Depth 0.00 in    
Sea Level Pressure  
Sea Level Pressure 29.86 in    
Wind  
Wind Speed 15 mph (West)    
Max Wind Speed 32 mph    
Max Gust Speed 38 mph    
Visibility 10 miles    
Events      
T = Trace of Precipitation, MM = Missing Value Source: NWS Daily Summary

Daily Weather History Graph

Daily Weather History Graph

Search for Another Location

Airport or City:

Trip Planner

Search our weather history database for the weather conditions in past years. The results will help you decide how hot, cold, wet, or windy it might be!

Date:

Astronomy

Oct. 22, 2010 Rise Set
Actual Time 7:05 AM EDT 5:51 PM EDT
Civil Twilight 6:36 AM EDT 6:19 PM EDT
Nautical Twilight 6:03 AM EDT 6:52 PM EDT
Astronomical Twilight 5:31 AM EDT 7:25 PM EDT
Moon 5:17 PM EDT (10/22) 6:42 AM EDT (10/22)
Length of Visible Light 11h 43m
Length of Day
10h 46m
Full, 100% of the Moon is Illuminated
Oct 22
Full
Oct 22
Full
Oct 30
Last Quarter
Nov 6
New
Nov 13
First Quarter

Hourly Weather History & Observations

Time (EDT) Temp. Windchill Dew Point Humidity Pressure Visibility Wind Dir Wind Speed Gust Speed Precip Events Conditions
12:54 AM 46.0 °F 41.0 °F 33.1 °F 61% 29.71 in 10.0 mi West 10.4 mph - N/A   Partly Cloudy
1:54 AM 45.0 °F 39.3 °F 32.0 °F 60% 29.72 in 10.0 mi West 11.5 mph 19.6 mph N/A   Scattered Clouds
2:54 AM 44.1 °F 39.0 °F 32.0 °F 63% 29.73 in 10.0 mi WNW 9.2 mph - N/A   Partly Cloudy
3:54 AM 41.0 °F 38.0 °F 33.1 °F 73% 29.73 in 10.0 mi WSW 4.6 mph - N/A   Clear
4:54 AM 42.1 °F 37.7 °F 32.0 °F 67% 29.76 in 10.0 mi WNW 6.9 mph - N/A   Mostly Cloudy
5:54 AM 42.1 °F 35.2 °F 32.0 °F 67% 29.79 in 10.0 mi West 12.7 mph - N/A   Partly Cloudy
6:54 AM 42.1 °F 35.2 °F 32.0 °F 67% 29.80 in 10.0 mi West 12.7 mph - N/A   Mostly Cloudy
7:54 AM 42.1 °F 34.9 °F 30.0 °F 62% 29.83 in 10.0 mi West 13.8 mph 24.2 mph N/A   Mostly Cloudy
8:54 AM 43.0 °F 34.2 °F 27.0 °F 53% 29.86 in 10.0 mi West 20.7 mph 27.6 mph N/A   Mostly Cloudy
9:54 AM 45.0 °F 37.4 °F 24.1 °F 44% 29.87 in 10.0 mi West 18.4 mph 28.8 mph N/A   Scattered Clouds
10:54 AM 46.9 °F - 21.9 °F 37% 29.86 in 10.0 mi WNW 18.4 mph 26.5 mph N/A   Partly Cloudy
11:54 AM 48.0 °F - 21.0 °F 34% 29.86 in 10.0 mi WNW 17.3 mph 29.9 mph N/A   Scattered Clouds
12:54 PM 48.9 °F - 21.0 °F 33% 29.84 in 10.0 mi WNW 19.6 mph 27.6 mph N/A   Scattered Clouds
1:54 PM 48.9 °F - 19.9 °F 32% 29.84 in 10.0 mi West 21.9 mph 38.0 mph N/A   Scattered Clouds
2:54 PM 48.9 °F - 19.9 °F 32% 29.86 in 10.0 mi WNW 21.9 mph 33.4 mph N/A   Mostly Cloudy
3:54 PM 46.9 °F - 19.9 °F 34% 29.88 in 10.0 mi WNW 20.7 mph 32.2 mph N/A   Scattered Clouds
4:54 PM 46.9 °F - 21.0 °F 36% 29.90 in 10.0 mi WNW 20.7 mph 27.6 mph N/A   Scattered Clouds
5:54 PM 45.0 °F 37.4 °F 19.0 °F 36% 29.93 in 10.0 mi WNW 18.4 mph - N/A   Partly Cloudy
6:54 PM 44.1 °F 38.1 °F 19.0 °F 37% 29.94 in 10.0 mi WNW 11.5 mph 19.6 mph N/A   Partly Cloudy
7:54 PM 44.1 °F 38.1 °F 19.9 °F 38% 29.95 in 10.0 mi West 11.5 mph 19.6 mph N/A   Partly Cloudy
8:54 PM 44.1 °F 37.1 °F 21.9 °F 42% 29.95 in 10.0 mi WSW 15.0 mph 20.7 mph N/A   Partly Cloudy
9:54 PM 43.0 °F 35.1 °F 23.0 °F 45% 29.97 in 10.0 mi West 17.3 mph - N/A   Partly Cloudy
10:54 PM 43.0 °F 35.1 °F 23.0 °F 45% 29.98 in 10.0 mi West 17.3 mph - N/A   Partly Cloudy
11:54 PM 42.1 °F 35.2 °F 23.0 °F 47% 29.99 in 10.0 mi West 12.7 mph - N/A   Partly Cloudy